Regional Weather Roundup
Issued by NWS Raleigh/Durham, NC

Home | Current Version | Previous Version | Text Only | Print | Product List | Glossary On
Versions: 1 2 3 4 5 6 7 8 9 10 11 12 13 14 15 16 17 18 19 20 21 22 23 24 25 26 27 28 29 30 31 32 33 34 35 36 37 38 39 40 41 42 43 44 45 46 47 48 49 50
000
ASUS42 KRAH 052010
RWRRAH
NORTH CAROLINA WEATHER ROUNDUP
NATIONAL WEATHER SERVICE RALEIGH NC
300 PM EST THU MAR 05 2015

NOTE: "FAIR" INDICATES FEW OR NO CLOUDS BELOW 12,000 FEET WITH NO
SIGNIFICANT WEATHER AND/OR OBSTRUCTIONS TO VISIBILITY.

NCZ001-053-055-056-065-067-052100-
WESTERN NORTH CAROLINA

CITY           SKY/WX    TMP DP  RH WIND       PRES   REMARKS
ASHEVILLE      PTSUNNY   41  36  82 N28       29.98R
JEFFERSON      CLOUDY    33  33 100 NE6       29.95R WCI  28
MORGANTON      LGT RAIN  46  46  99 CALM      30.00R
HICKORY        LGT RAIN  44  41  89 E12       29.96F
RUTHERFORDTON  LGT RAIN  49  48  96 CALM      29.94F
MOUNT AIRY     LGT RAIN  41  38  89 NE10      30.01F
BOONE          DRIZZLE   37  36  96 W15       29.96R WCI  27
$$

NCZ021-022-025-041-071-084-088-052100-
CENTRAL NORTH CAROLINA

CITY           SKY/WX    TMP DP  RH WIND       PRES   REMARKS
CHARLOTTE      LGT RAIN  45  41  86 NE12G21   29.97F
GREENSBORO     LGT RAIN  38  35  89 NE15G23   30.01F FOG     WCI  29
WINSTON-SALEM  LGT RAIN  39  36  89 NE10      30.02F WCI  32
RALEIGH-DURHAM LGT RAIN  38  34  85 NE20G29   30.05R FOG     WCI  28
FORT BRAGG     NOT AVBL
FAYETTEVILLE   LGT RAIN  43  41  93 N22G37    29.98R FOG
BURLINGTON     LGT RAIN  37  34  89 NE9G18    30.03F FOG     WCI  30
LAURINBURG     LGT RAIN  43  41  93 N26G33    29.99R FOG
$$

NCZ011-015-027-028-043-044-047-080-103-052100-
NORTHEASTERN NORTH CAROLINA

CITY           SKY/WX    TMP DP  RH WIND       PRES   REMARKS
ROCKY MT-WILSO LGT SNOW  37  35  92 N21G32    30.06S FOG     WCI  26
GREENVILLE     LGT RAIN  37  37 100 N21       30.05R WCI  27
WASHINGTON     LGT RAIN  39  37  92 N14G24    30.03R WCI  31
ELIZABETH CITY HVY RAIN  37  34  87 N22G36    30.07R FOG     WCI  27
MANTEO         CLOUDY    38  37  96 N21G26    29.99F WCI  27
CAPE HATTERAS  CLOUDY    41  41 100 N10G21    29.96F FOG
$$

NCZ078-087-090-091-093-098-101-052100-
SOUTHEASTERN NORTH CAROLINA

CITY           SKY/WX    TMP DP  RH WIND       PRES   REMARKS
LUMBERTON      CLOUDY    78  62  57 SW24G32   29.84F
GOLDSBORO      MIX PCPN  40  40  99 N15G31    29.99R FOG     WCI  32
KINSTON        LGT RAIN  41  41 100 N21G29    30.01R
KENANSVILLE    CLOUDY    51  45  80 N24G35    29.96R
NEW BERN       CLOUDY    51  42  71 NE14      29.95R
CHERRY POINT   MOSUNNY   55  45  68 NE22G29   29.92R
BEAUFORT       CLOUDY    61  60  97 S20       29.90F FOG
JACKSONVILLE   CLOUDY    80  61  52 SW12G23   29.85F
WILMINGTON     MOSUNNY   75  63  66 SW22G36   29.88F
$$



USA.gov is the U.S. government's official web portal to all federal, state and local government web resources and services.